Theta_e
313 314 313 313 314 314 314 314 314 314 314 314 314 314 314 314 314 315 314 314 315 315 315 315 315 315 314 315 314 314 314 314 314 314 313 314 313 313 314 313 313 313 313 313 313 313 313 313 313 313 313 313 313 312 312 312 312 312 312 312 312 312
313 314 314 314 314 314 315 314 314 315 314 314 314 314 314 314 314 314 314 315 314 314 315 314 315 314 314 314 314 314 314 314 314 314 313 314 314 314 313 313 314 313 313 313 313 313 313 313 313 313 313 313 312 312 312 312 312 312 312 312 311 311
314 314 314 314 314 314 315 314 314 314 314 314 314 314 314 314 314 314 314 314 314 314 315 314 314 314 314 314 314 314 314 314 314 314 314 314 313 313 314 314 314 313 314 314 314 314 314 314 314 314 313 313 313 313 312 312 312 312 312 312 311 312
314 314 314 314 314 314 314 314 314 314 314 314 314 314 314 314 314 314 314 314 314 314 314 314 314 314 314 314 314 314 314 314 314 314 314 314 313 313 313 313 313 313 313 313 314 314 314 314 314 314 314 314 313 313 313 312 312 312 312 312 312 312
314 314 314 314 314 314 313 314 314 314 314 314 314 314 314 314 314 314 314 314 314 314 314 314 314 314 314 314 314 314 314 314 314 314 314 314 314 314 313 313 313 313 313 313 313 313 313 314 313 313 313 313 313 313 313 313 312 312 312 312 312 312
314 314 314 313 313 313 313 313 313 313 314 313 314 314 314 314 314 314 314 314 314 314 314 314 314 314 314 314 314 313 313 313 313 313 313 313 313 314 314 314 314 313 314 313 313 313 313 313 313 313 313 313 313 313 313 313 313 312 312 312 312 312
313 313 313 313 313 313 313 313 313 313 313 313 313 313 313 313 313 313 313 313 314 314 313 314 314 314 313 313 313 313 313 313 313 312 312 312 312 313 313 313 314 314 314 314 314 314 313 314 313 313 313 313 313 313 313 313 312 312 312 312 312 311
313 313 312 312 312 312 312 313 312 312 313 312 313 313 313 313 313 313 313 313 313 313 313 313 313 313 313 313 313 313 313 313 313 313 313 312 312 312 312 312 313 313 314 314 314 313 313 313 313 313 313 313 313 313 312 312 312 312 312 311 311 311
312 311 311 311 311 312 312 312 312 312 312 312 312 312 312 312 312 313 313 313 313 313 313 313 313 313 313 312 312 312 312 312 312 312 312 312 312 312 312 312 312 312 313 313 313 313 313 313 313 313 313 313 313 312 312 312 311 311 311 311 311 311
312 311 311 311 311 311 312 312 312 312 312 312 312 312 312 312 312 312 312 312 313 313 313 312 312 312 312 311 311 311 311 311 311 311 312 311 312 312 312 312 312 312 312 313 313 313 313 313 313 313 312 312 312 312 312 311 311 311 311 311 311 310
311 310 310 311 311 312 312 312 312 311 312 311 311 311 311 311 312 311 311 311 311 311 311 311 310 310 310 310 310 310 310 310 310 310 310 311 311 311 311 311 312 312 312 312 313 313 313 313 313 312 312 312 312 312 312 311 311 311 311 310 310 310
311 311 311 312 312 311 311 311 311 311 311 311 310 311 310 310 310 310 310 309 309 309 309 308 308 308 308 308 308 308 308 308 308 308 308 309 309 310 310 310 311 311 311 311 312 312 312 312 312 312 312 312 312 311 311 311 311 311 311 310 310 310
311 311 312 312 311 311 311 311 311 310 310 310 309 309 309 308 308 307 307 307 307 306 306 306 306 306 306 306 306 305 305 305 305 305 306 306 307 308 308 309 309 310 310 310 310 311 311 311 311 311 311 311 311 311 311 311 311 310 310 310 310 310
311 311 311 311 311 311 310 310 310 309 309 308 308 307 306 306 305 305 305 304 304 304 304 304 304 304 304 304 303 303 303 303 303 303 303 304 304 305 306 307 308 309 309 309 310 310 310 310 310 311 311 311 310 310 310 310 310 310 310 310 309 309
310 310 310 310 310 309 308 308 307 307 306 306 305 305 304 304 304 303 303 303 302 302 302 302 302 302 302 302 302 302 302 302 302 302 302 302 302 303 304 305 307 308 309 309 309 309 310 310 310 310 310 310 310 310 309 310 310 309 310 309 309 309
309 308 308 307 307 306 304 303 303 303 302 302 302 302 302 302 302 302 302 302 301 301 301 302 302 302 302 302 302 302 301 301 301 301 301 301 301 301 302 303 304 306 307 308 309 309 309 310 310 310 310 309 309 309 309 309 309 309 309 309 309 308
305 305 304 303 302 301 301 301 300 300 300 300 301 301 301 301 301 301 301 301 301 301 301 302 302 302 302 302 302 301 301 301 301 301 301 301 301 301 301 301 301 302 304 306 307 308 309 309 309 309 309 309 309 308 308 308 308 308 308 308 308 308
302 301 300 300 300 299 299 300 300 300 300 300 300 300 301 301 301 301 301 301 302 302 301 302 302 302 302 302 301 300 300 299 300 301 301 301 301 301 301 301 301 301 301 302 303 305 306 308 309 309 309 309 308 308 307 307 307 307 307 307 307 307
300 299 299 299 299 299 299 299 299 300 300 300 300 300 301 301 301 301 302 302 302 302 302 301 301 301 301 300 300 299 298 298 299 299 300 300 301 301 301 301 301 300 300 300 300 301 302 304 307 308 308 308 308 307 307 307 306 306 306 306 306 306
299 298 298 298 298 299 299 299 299 300 300 300 301 301 301 301 302 302 302 302 301 301 300 300 299 299 299 298 297 297 297 297 297 298 298 299 299 300 300 300 300 301 300 300 300 300 300 301 303 306 307 307 307 306 306 306 305 306 306 306 305 305
298 298 298 298 298 299 299 299 299 299 300 300 300 300 300 300 300 300 299 299 298 298 297 297 297 296 296 296 296 296 296 296 296 296 296 297 297 298 298 298 299 299 300 300 300 300 300 299 300 303 305 306 306 305 305 304 304 305 305 305 304 304
297 297 298 298 298 298 298 298 298 298 298 297 297 297 297 297 296 296 296 296 295 295 295 295 295 295 295 295 295 295 295 295 295 296 296 296 296 296 296 297 297 297 298 298 298 298 299 299 299 301 303 305 306 305 304 304 304 304 304 304 303 303
297 297 297 297 297 297 296 296 296 295 295 295 295 295 295 295 295 295 295 295 295 295 295 295 295 295 295 295 295 295 295 295 295 295 295 295 295 295 296 296 296 296 296 296 297 297 297 298 298 299 301 303 304 304 304 303 303 303 302 302 302 301
297 297 296 296 296 295 295 295 294 294 294 294 294 294 294 294 294 294 295 295 295 295 295 295 295 295 295 295 295 295 295 295 295 295 295 295 295 295 295 295 295 295 296 296 296 296 296 297 298 299 300 302 303 304 303 303 302 302 300 300 300 299
297 296 296 295 295 294 294 294 293 294 294 294 294 294 294 294 294 295 295 295 295 295 295 295 295 295 294 294 294 294 295 294 294 294 294 294 294 294 295 295 295 295 295 295 295 295 296 297 298 299 300 301 302 303 302 302 301 300 299 298 299 298
296 296 295 295 294 293 293 293 294 294 294 294 294 294 294 294 294 294 294 294 294 294 294 294 294 294 294 294 294 294 294 294 294 294 294 294 294 294 294 294 294 295 295 295 295 295 296 296 297 299 300 301 302 302 301 300 300 299 298 297 297 297
296 295 294 294 293 293 293 294 294 294 294 294 294 294 294 294 294 294 294 293 293 293 293 293 293 293 293 293 293 293 293 293 293 294 294 294 293 293 293 293 293 294 294 295 295 295 295 295 296 298 299 300 301 301 300 300 299 298 297 297 297 296
295 294 294 294 293 294 294 294 294 294 294 294 294 293 293 293 293 293 293 293 293 293 293 293 293 293 293 292 292 292 292 292 292 292 293 293 293 292 292 292 293 293 293 294 294 294 295 295 296 297 298 300 300 300 300 299 298 297 297 296 297 296
294 294 293 293 293 294 294 294 294 293 293 293 293 293 293 292 292 292 292 292 292 292 292 292 292 292 292 292 292 292 292 292 292 292 292 292 292 292 292 292 292 292 293 293 294 294 295 295 295 296 298 299 299 300 299 298 298 297 296 296 296 296
293 293 293 293 293 293 293 293 293 293 293 292 292 292 292 291 291 291 291 291 291 291 291 291 291 291 291 291 291 291 291 291 291 291 292 292 291 291 291 291 292 292 292 293 293 294 294 294 295 296 298 298 299 299 298 297 296 296 295 295 296 296
293 293 293 293 293 293 293 292 292 292 291 291 291 291 290 290 290 290 290 290 290 290 290 290 290 290 290 291 291 291 291 291 291 291 291 291 291 291 290 291 291 291 292 292 292 293 294 294 294 295 297 298 298 298 297 296 295 294 294 295 295 295
293 293 293 293 293 292 292 291 291 290 290 290 290 290 290 290 290 290 290 290 290 290 290 290 290 290 290 290 291 290 290 291 290 290 291 291 291 290 290 290 290 291 291 292 292 292 294 294 294 295 297 297 297 296 296 295 294 294 294 294 294 293
293 293 293 292 292 291 290 290 289 289 289 289 289 289 289 289 289 289 290 289 289 290 290 290 290 290 290 290 290 290 290 291 290 290 291 291 291 291 290 290 290 290 290 291 292 292 292 293 294 295 296 297 297 296 295 294 294 294 294 294 293 292
293 292 292 291 290 290 289 289 289 289 289 289 289 289 289 289 289 289 289 289 289 289 289 289 289 289 289 289 289 290 290 290 290 290 290 290 291 290 290 290 290 289 290 291 291 292 292 293 293 294 295 296 296 295 295 294 293 293 293 292 291 291
291 291 290 289 289 289 289 289 289 289 289 289 289 289 289 289 289 289 289 289 289 289 288 288 288 288 289 289 289 289 289 289 289 290 290 290 291 290 290 290 290 289 289 290 291 292 292 292 293 293 294 294 294 294 294 293 292 292 291 290 289 290
289 289 289 289 289 289 289 289 289 289 288 288 288 288 288 288 288 288 288 288 288 288 288 288 288 287 288 288 288 288 288 288 289 289 289 289 290 290 290 290 290 289 289 290 291 292 292 292 292 292 292 292 292 292 292 291 291 290 290 289 288 289
289 288 289 289 288 288 288 288 288 288 288 288 288 288 288 288 287 287 287 287 287 287 287 287 287 287 287 287 287 287 287 288 288 288 288 288 289 289 289 290 290 289 289 290 291 292 291 291 290 290 290 291 291 290 289 289 289 289 289 288 288 288
288 288 288 288 288 288 288 288 288 288 287 287 287 287 287 287 287 287 287 287 286 286 286 286 286 286 286 286 286 286 286 287 287 287 287 288 288 288 288 289 289 289 290 290 291 291 291 290 289 288 288 289 289 288 287 287 288 288 288 288 287 287
Wind_Speed
15 13 12 11 10 9 8 8 8 8 9 9 9 9 10 11 11 12 13 14 14 15 16 17 18 18 18 19 20 20 20 19 18 18 18 17 17 18 19 19 20 21 22 22 23 23 23 24 25 26 27 29 30 31 32 33 34 36 36 36 38 38
13 12 11 10 9 8 8 7 6 7 7 8 8 9 10 11 12 12 13 14 15 16 17 18 18 18 18 18 18 19 20 19 19 19 19 18 17 18 18 19 19 20 21 21 22 22 23 24 25 26 27 29 31 32 32 33 34 35 35 35 35 35
10 10 9 8 7 6 6 6 6 7 7 8 9 10 11 12 13 14 15 16 17 17 18 18 17 17 17 18 18 18 19 19 19 19 20 20 19 19 19 19 19 20 21 22 22 23 23 25 26 27 28 30 31 32 33 34 34 35 35 34 34 33
8 7 6 5 5 5 6 7 7 8 9 10 11 12 13 14 15 15 16 16 16 16 15 15 15 16 16 16 17 17 18 18 18 18 19 19 19 20 20 20 20 21 22 23 23 24 25 26 27 28 29 31 32 34 34 34 35 35 35 35 34 33
6 4 4 4 5 6 7 8 9 9 10 11 11 12 13 13 14 14 14 14 14 14 14 14 15 15 15 16 16 16 17 18 18 18 19 19 19 20 20 21 21 22 24 25 26 27 27 28 29 29 31 32 33 35 35 35 35 36 36 36 36 35
4 3 3 4 5 7 8 9 10 10 10 10 10 10 10 10 10 10 10 11 11 13 13 14 14 14 14 15 16 17 17 18 19 20 20 20 20 20 21 21 22 23 25 26 27 28 29 30 31 31 33 34 35 36 36 36 36 37 37 37 36 36
2 3 4 5 6 7 7 8 8 8 8 8 7 7 7 7 7 7 8 8 9 10 11 11 12 12 13 14 15 16 18 19 20 21 22 23 23 23 23 23 24 24 25 26 27 28 29 30 31 32 33 34 35 36 37 38 38 38 38 38 37 36
3 4 5 5 6 6 5 6 6 7 7 7 7 7 7 7 7 7 7 8 8 8 9 10 11 11 12 14 15 17 19 20 21 22 23 24 24 25 25 26 26 27 27 28 28 29 29 30 31 31 32 32 33 35 37 38 39 39 39 38 37 36
4 5 6 7 7 7 7 7 7 6 6 7 7 8 8 8 8 8 9 9 9 10 10 11 12 14 15 16 18 19 20 22 23 24 24 25 25 26 26 27 28 28 29 30 30 30 31 31 31 31 31 31 31 32 34 36 38 39 39 38 37 37
3 5 7 8 8 7 8 7 7 6 7 7 8 9 9 9 9 10 10 11 11 12 12 13 15 16 18 19 20 21 22 23 23 24 25 25 26 26 27 27 27 27 28 29 31 31 32 33 33 32 31 31 31 31 32 33 35 37 37 38 37 37
3 5 5 6 6 7 7 6 6 6 7 8 9 10 11 11 11 12 12 13 13 14 14 15 17 18 19 20 20 21 22 22 23 23 24 25 26 26 26 26 26 27 27 28 29 30 31 32 33 32 31 31 31 31 32 33 34 36 37 37 38 38
2 2 4 6 6 5 5 5 5 6 7 9 10 10 11 12 13 14 14 15 15 16 16 16 17 17 18 19 19 20 21 22 23 24 24 25 25 26 26 26 27 27 28 28 28 29 30 31 31 32 31 31 31 31 32 33 34 35 36 37 38 39
2 4 6 7 6 5 5 5 6 7 8 10 10 11 12 13 14 15 15 16 16 17 17 17 17 18 19 19 20 22 23 24 25 26 27 27 27 28 27 27 28 28 28 29 30 30 31 31 31 32 32 32 32 32 33 33 34 35 36 37 38 39
5 5 5 5 5 4 4 5 6 8 9 10 11 12 13 14 14 15 16 16 17 17 18 18 19 20 21 22 23 25 26 27 28 29 30 30 30 31 31 31 30 29 29 30 31 31 31 31 31 32 32 33 33 33 34 35 35 35 36 37 37 38
4 4 3 3 3 3 4 5 6 7 8 10 11 12 13 14 15 15 16 17 17 18 19 20 20 22 23 25 27 28 30 31 32 33 33 34 33 34 34 34 34 33 33 32 32 33 32 32 32 32 33 33 33 33 34 35 37 37 38 38 38 38
4 3 2 2 2 2 3 4 5 7 8 9 10 11 12 14 15 15 16 17 18 19 20 21 23 24 26 27 29 31 33 34 34 34 35 35 35 35 35 36 36 36 36 36 36 36 35 34 33 34 34 34 34 34 34 36 37 38 39 39 39 39
4 3 2 1 0 1 3 4 5 7 8 9 11 12 13 14 15 17 18 19 20 21 23 24 25 27 29 30 33 35 36 36 36 36 36 37 37 37 37 37 37 37 37 38 39 39 39 37 36 35 35 35 35 35 35 36 37 38 39 39 39 39
5 3 2 1 1 2 3 5 6 7 9 10 12 14 15 17 18 19 20 21 23 24 26 28 29 31 33 35 37 38 39 39 39 39 39 40 40 40 40 39 40 40 39 40 40 41 42 41 38 37 37 36 35 35 36 36 36 37 38 38 38 39
4 3 1 2 3 4 6 7 8 9 11 13 15 16 18 20 21 23 24 25 26 28 29 31 33 35 36 38 39 40 40 40 40 40 41 42 42 42 42 42 42 42 42 42 42 42 43 43 41 40 39 37 36 35 36 36 36 37 38 38 38 38
3 2 2 4 5 7 8 9 11 13 14 16 18 20 22 23 25 26 27 28 29 30 32 33 34 36 37 38 38 38 39 39 40 40 41 42 44 44 44 45 45 44 44 44 44 44 45 45 43 42 41 40 38 35 35 35 36 37 38 38 38 38
2 0 2 4 6 9 10 12 14 16 18 20 21 23 25 26 27 28 28 29 29 30 31 31 33 34 35 36 36 37 38 38 39 40 40 41 43 44 45 45 46 46 46 45 45 45 46 46 45 43 42 42 40 38 36 35 36 38 38 38 38 38
1 2 4 6 9 11 13 15 17 18 20 21 22 24 25 25 26 26 26 27 27 28 29 29 30 32 32 34 35 36 37 38 39 40 41 41 42 43 44 45 45 47 47 46 46 46 46 46 45 44 42 42 41 39 37 36 36 37 37 37 37 37
2 4 7 9 11 14 16 17 18 19 20 20 21 23 23 24 25 25 25 26 26 27 28 28 29 30 31 32 34 36 36 37 38 39 40 41 42 43 44 44 44 45 47 46 46 46 45 45 45 44 43 42 41 39 37 37 37 36 35 35 36 36
5 7 10 12 14 16 18 19 19 20 20 21 22 23 24 25 26 27 27 27 27 28 28 28 29 30 31 32 33 35 36 36 36 37 39 40 41 42 43 43 43 44 45 45 45 44 44 43 43 43 43 42 41 39 37 36 36 33 32 34 36 37
8 10 12 14 16 19 20 21 21 21 21 22 23 24 26 27 27 28 28 28 29 29 29 30 30 30 31 32 33 35 35 36 36 37 37 38 40 41 42 42 42 43 44 44 44 43 43 42 41 42 42 42 42 40 38 35 34 32 30 33 36 37
11 13 15 17 18 20 21 22 23 23 23 24 24 25 27 28 29 29 29 30 30 30 30 31 31 31 31 32 33 34 35 36 36 37 38 38 39 40 41 41 42 43 44 44 44 43 43 43 43 42 41 41 41 41 38 35 33 31 30 31 34 35
13 15 16 17 19 20 21 22 23 24 24 25 25 26 28 29 30 30 30 31 31 31 32 32 32 32 32 33 34 35 35 36 37 37 38 38 39 40 41 41 42 42 43 44 44 44 44 44 44 44 42 41 40 40 38 36 34 32 30 31 33 33
15 17 17 18 19 20 21 22 23 25 25 26 26 27 28 29 31 31 31 32 32 33 33 34 34 34 34 35 35 36 37 37 38 39 39 40 40 41 41 42 42 43 44 44 44 44 44 44 45 45 43 41 40 39 38 36 35 32 30 30 32 32
18 19 20 19 19 20 20 21 23 24 25 26 27 28 29 30 32 33 34 34 35 35 36 36 37 38 38 38 38 39 39 39 40 41 42 42 42 42 42 43 43 43 44 44 44 44 44 44 44 45 43 41 40 39 37 36 35 32 30 30 30 30
20 21 21 21 21 21 21 21 22 23 25 27 28 30 31 33 34 35 36 37 38 39 39 40 41 41 42 42 42 43 43 43 43 44 44 43 44 45 45 45 45 44 44 45 45 45 45 45 44 44 42 41 40 39 37 35 34 32 29 29 29 29
21 22 22 22 22 22 22 22 23 24 26 29 31 33 35 36 37 38 39 40 41 42 42 42 43 44 45 45 46 46 46 46 46 47 47 46 46 46 47 47 47 46 46 45 45 45 45 46 45 43 41 40 39 38 36 34 32 31 30 29 29 29
22 23 23 23 23 23 24 24 26 27 29 31 33 35 37 38 39 40 41 42 42 42 43 43 44 44 45 46 47 48 48 48 48 48 49 49 48 47 48 48 48 47 47 47 46 45 45 45 45 43 41 39 37 36 35 33 31 30 30 29 29 29
22 23 23 23 24 25 26 27 28 29 31 32 34 36 37 39 40 41 42 43 43 43 44 44 45 45 46 46 47 48 49 50 50 49 49 50 50 49 49 49 49 48 47 47 47 46 45 45 44 43 41 39 37 35 34 32 30 29 29 29 28 29
21 22 23 24 25 27 28 29 30 31 32 33 34 36 37 38 40 42 43 44 44 44 45 45 46 47 47 48 48 48 49 51 52 52 51 50 50 50 49 49 49 48 47 46 45 46 46 45 44 42 40 38 36 35 33 31 28 28 27 27 27 29
21 22 24 25 27 28 29 30 31 32 33 34 35 36 37 38 40 41 43 44 45 46 46 47 47 48 49 49 50 50 50 50 52 53 54 54 53 52 51 50 49 48 47 46 45 44 45 45 44 43 40 36 33 32 32 30 27 26 25 24 27 30
22 23 25 26 28 29 30 30 31 32 34 35 36 37 38 39 40 41 43 44 45 46 47 48 48 49 49 50 50 50 50 50 50 51 53 54 55 55 54 53 50 48 47 46 45 44 43 43 44 43 41 36 32 29 28 27 26 27 25 24 27 31
23 24 25 27 28 29 29 30 31 33 34 35 36 38 39 40 41 42 44 44 45 46 48 49 49 49 49 50 50 50 50 51 50 50 50 51 52 53 54 54 53 50 47 46 45 44 43 41 41 41 39 36 32 27 24 24 26 28 28 26 29 32
23 24 26 27 28 29 30 31 32 34 34 36 37 38 40 41 42 43 45 46 46 47 48 49 50 50 49 49 50 50 50 50 49 49 49 49 49 49 50 52 52 51 48 46 45 44 42 41 39 38 37 34 29 25 23 25 28 30 30 30 31 33
Wind_Direction
77 69 62 56 47 42 37 29 16 3 355 349 342 335 333 333 333 334 334 335 335 334 334 332 330 327 322 319 317 320 321 316 306 300 296 293 289 284 280 277 276 276 277 278 278 277 276 276 275 274 272 270 268 267 266 267 266 266 268 268 268 270
74 66 58 49 39 33 27 20 5 354 346 338 332 328 327 326 324 326 329 330 330 329 329 327 325 322 318 315 315 319 322 320 313 306 299 293 289 285 283 281 280 279 279 278 278 279 280 282 282 282 282 281 278 276 273 271 270 269 271 272 273 274
76 67 56 44 34 20 7 357 346 339 332 325 322 320 319 317 317 319 321 322 322 322 322 322 321 321 319 319 320 322 323 323 321 316 308 303 296 289 285 283 282 280 279 278 279 282 283 284 284 284 285 285 284 283 280 278 276 274 275 276 277 279
85 71 57 42 22 2 351 341 333 327 323 321 321 319 319 318 317 318 320 321 320 319 320 321 323 325 325 325 326 327 328 328 328 325 321 317 311 305 298 293 288 283 281 280 281 282 283 284 285 285 285 285 285 284 283 282 281 281 281 281 282 283
85 67 42 21 5 356 349 340 335 331 327 324 322 321 320 320 320 322 324 325 324 324 326 328 331 334 336 338 340 341 341 341 339 336 333 330 325 320 315 309 302 296 292 290 289 289 288 287 287 286 285 285 285 284 284 284 283 284 284 284 285 286
83 57 26 12 6 358 350 346 339 334 332 331 330 329 327 325 324 324 325 326 326 327 330 334 338 343 346 349 352 353 352 351 349 347 344 340 337 332 326 320 314 309 305 302 300 298 296 294 292 290 289 288 287 287 286 285 285 285 285 285 285 285
62 39 28 20 13 0 352 350 345 344 349 354 355 355 351 347 343 337 333 332 332 332 334 339 343 347 350 353 354 353 352 350 348 347 345 342 341 338 334 328 323 317 313 310 307 304 302 299 296 293 292 291 289 288 286 285 284 283 283 283 283 283
33 35 39 36 30 25 21 21 16 13 15 17 20 19 13 10 5 359 354 349 345 343 341 343 345 347 348 349 348 346 345 344 342 341 340 338 337 336 334 331 328 324 320 316 312 308 305 302 299 297 295 294 292 289 286 284 282 281 281 281 282 282
35 41 50 52 52 50 45 39 33 28 25 24 25 23 18 14 7 2 358 353 350 347 343 343 343 344 343 343 342 341 339 337 334 333 332 331 330 330 330 328 327 326 323 320 317 314 310 306 303 302 300 298 296 292 288 285 282 282 282 282 283 283
40 47 58 58 50 39 30 28 28 26 21 17 15 13 11 7 2 358 353 350 347 344 343 342 340 339 339 337 336 334 332 331 329 327 326 325 324 324 323 323 323 322 320 319 318 317 314 312 310 308 306 302 299 295 291 287 284 282 281 281 282 282
56 55 52 38 19 9 10 14 14 13 8 4 3 360 358 358 356 353 350 346 344 342 342 341 338 336 335 334 334 332 331 330 329 327 325 323 321 320 319 319 318 318 316 316 315 315 315 314 314 312 310 305 301 296 291 288 285 282 281 281 281 281
62 31 348 334 337 345 354 357 358 359 356 356 355 352 352 353 351 349 347 345 344 343 342 341 339 338 337 337 338 338 338 337 335 333 331 328 325 322 320 319 317 316 315 314 314 313 314 314 314 313 311 307 303 298 293 290 287 284 282 281 281 282
285 299 300 301 305 319 334 339 345 349 347 347 348 349 351 351 350 348 346 345 345 343 342 341 341 340 339 340 341 340 340 339 338 336 334 332 331 329 326 324 320 318 316 314 314 314 314 315 316 315 312 309 306 303 298 294 291 287 284 283 282 282
286 286 280 280 285 298 316 324 331 336 339 341 343 348 349 346 347 348 345 344 344 341 340 340 340 340 340 339 340 339 338 337 336 334 332 331 331 330 329 328 326 324 321 318 316 315 314 316 317 316 313 310 308 304 301 298 294 291 288 286 284 283
262 258 258 269 282 303 324 330 333 335 339 342 340 342 343 340 340 342 340 340 339 337 337 337 337 338 338 337 337 336 335 334 333 332 331 329 329 328 327 327 327 327 326 324 321 318 317 318 319 317 314 311 308 304 300 298 296 293 291 289 286 285
215 224 235 247 282 330 346 349 350 346 345 344 338 335 335 333 332 333 333 332 332 332 332 331 332 333 333 334 333 332 331 330 329 329 327 326 326 325 324 323 323 323 324 324 322 320 320 320 320 318 316 314 310 305 301 298 295 293 292 290 288 286
177 178 175 162 50 6 358 351 351 346 340 336 333 329 327 326 325 325 325 325 325 325 325 325 327 327 328 328 328 327 326 325 324 324 323 322 322 322 321 321 320 319 319 320 320 318 318 319 320 318 317 315 312 307 302 298 295 294 292 290 288 286
155 146 132 87 35 3 350 343 339 337 333 329 326 323 321 320 319 318 319 319 320 321 321 321 322 322 323 324 323 322 321 320 320 320 319 318 318 318 318 318 317 317 317 317 317 316 314 315 318 317 315 314 312 308 303 299 296 293 292 290 288 287
145 120 56 4 350 339 337 335 331 328 327 323 319 317 316 315 315 315 316 317 317 318 318 318 318 319 319 318 318 317 316 316 315 315 314 313 312 312 313 313 313 313 314 314 315 314 313 313 315 317 315 314 312 308 304 300 296 293 291 290 288 287
137 103 9 344 332 327 326 326 324 322 322 320 316 314 313 312 312 312 312 312 313 313 314 315 315 315 314 314 314 313 312 312 312 311 311 310 309 309 309 309 308 308 309 310 311 311 311 311 313 315 315 315 313 309 305 301 297 294 292 290 289 287
142 151 330 320 313 316 319 320 319 317 316 315 311 309 308 307 306 306 307 308 309 310 312 313 313 313 313 312 312 312 312 311 311 311 310 310 309 307 307 307 306 305 305 306 307 308 308 309 310 312 313 314 314 311 308 304 299 297 295 293 290 289
137 293 310 313 313 316 317 317 316 314 313 311 308 306 305 304 304 306 307 308 310 311 313 314 314 314 313 312 311 311 311 312 312 311 311 310 309 308 307 307 306 305 304 304 305 305 306 308 309 310 311 311 311 311 309 305 301 299 297 294 291 288
348 333 327 325 322 320 318 317 316 315 314 312 309 308 308 308 309 311 312 313 313 314 315 316 315 315 314 313 312 310 310 312 312 311 310 310 309 308 307 307 307 306 305 305 305 305 305 307 308 309 309 309 309 309 307 304 301 299 296 293 290 287
332 333 329 327 325 322 320 319 318 318 317 316 314 313 313 313 314 315 316 316 317 317 317 317 316 316 314 313 312 310 309 310 311 310 310 310 309 309 308 308 308 307 305 305 305 304 304 306 307 307 308 308 308 307 305 302 300 297 293 291 289 287
325 327 327 327 326 325 324 322 322 322 322 321 319 317 316 315 316 316 317 318 318 318 317 316 315 314 313 311 310 309 309 309 310 310 310 310 310 310 310 310 310 309 308 307 306 306 306 306 307 307 307 308 308 307 304 301 299 296 291 289 289 288
319 324 327 328 328 328 327 325 323 323 322 321 319 318 316 315 315 316 316 316 316 315 314 313 312 312 311 310 309 309 309 309 309 309 309 310 310 310 310 310 310 310 309 309 308 309 309 309 308 308 309 310 310 308 305 302 299 295 290 287 286 286
317 323 327 330 330 329 327 324 321 320 320 320 318 317 315 314 314 314 314 314 314 314 314 313 313 313 313 312 312 311 310 310 309 309 308 308 308 308 308 308 308 308 308 308 309 310 310 310 309 309 310 312 312 310 306 303 299 296 291 286 285 284
321 326 329 331 330 326 323 321 319 318 318 317 316 315 313 312 312 313 313 314 314 315 314 313 313 313 313 313 312 311 311 311 311 310 309 308 308 308 307 306 305 305 305 305 306 307 308 308 308 309 310 312 312 310 308 305 301 298 292 287 285 283
324 325 326 326 323 321 320 318 316 316 315 314 314 312 311 311 311 312 313 313 313 313 313 313 312 312 311 311 311 310 310 310 310 309 309 309 309 308 307 306 306 304 304 304 303 304 305 305 306 308 310 311 310 309 308 306 303 300 294 287 284 282
319 320 321 320 319 318 316 314 314 314 312 312 312 311 310 310 311 312 312 312 313 312 312 312 312 311 311 310 309 309 308 308 307 306 306 306 307 307 306 306 305 305 305 304 303 303 303 303 304 307 309 309 308 307 307 306 304 301 295 290 286 282
315 317 317 316 316 316 314 315 315 314 313 312 311 311 311 311 311 312 312 312 313 313 313 313 312 311 311 309 309 308 307 306 306 305 304 304 304 304 304 304 303 303 304 304 303 303 303 302 302 304 306 306 305 304 303 303 301 299 294 292 291 286
313 314 314 314 314 313 314 315 315 314 314 313 312 312 313 313 313 314 314 314 314 314 314 314 313 312 311 310 309 308 306 306 305 304 304 303 302 302 302 301 301 301 302 302 301 301 302 301 300 301 302 303 302 300 299 298 297 295 292 291 291 287
309 309 309 309 310 311 312 313 314 314 313 313 313 314 314 314 315 315 315 315 315 315 314 313 313 312 311 311 311 310 309 308 307 305 304 304 302 301 300 299 299 299 299 300 300 299 298 299 299 299 299 298 298 297 296 295 293 292 290 290 288 285
303 304 305 307 310 312 313 314 315 315 314 314 315 314 314 314 314 314 314 314 313 313 313 313 312 312 311 311 311 311 311 311 309 308 307 306 304 303 300 298 298 297 297 297 298 297 297 297 298 298 297 295 294 295 294 292 289 287 288 287 283 278
302 304 308 310 312 313 314 315 316 315 315 315 314 313 313 313 313 313 313 313 313 313 313 313 313 313 312 312 312 312 312 311 310 310 309 308 307 305 302 300 298 297 296 296 296 297 297 296 297 298 297 293 292 292 291 289 286 284 284 279 271 268
305 309 311 311 312 313 314 315 314 314 314 314 314 314 314 314 314 314 313 314 314 314 313 314 314 314 313 313 313 312 312 311 309 309 308 308 307 306 304 302 300 297 296 296 295 296 298 298 298 298 298 295 292 289 288 287 285 282 278 268 260 260
308 310 310 310 311 312 313 313 313 314 314 315 315 315 315 315 315 315 314 314 315 314 314 313 313 313 313 313 312 312 311 310 309 308 307 306 305 304 303 302 300 298 297 296 295 295 297 299 299 300 299 295 291 288 289 287 283 279 274 263 254 254
309 309 310 311 311 312 313 314 314 315 315 316 316 315 315 315 315 315 315 315 315 314 314 314 313 313 313 312 312 311 310 309 308 306 305 304 303 302 301 301 300 299 298 296 294 295 297 300 303 303 301 294 289 288 288 283 278 276 272 264 257 254